MAS81 RJAA-WBKK

Flight info

Callsign MAS81
Flight time N/A
Altitude 40000
Route SAMUS Y84 BUBDO A590 JOM M767 TOKON M646 VETAG VETAG1C
Aircraft A359/H-SDE2E3GHIJ3J4J5LM1ORWXY/LB1D1

Departure

Time 2026-05-05 09:39
Airport Narita International Airport (RJAA)

Arrival

Time N/A
Airport Kota Kinabalu International Airport (WBKK)
Time Latitude Longitude Altitude Speed Heading
2026-05-05 09:21 35.77464 140.39402 150 ft 0 kts 250°
2026-05-05 09:27 35.77464 140.39404 150 ft 2 kts 249°
2026-05-05 09:27 35.77474 140.39427 150 ft 4 kts 223°
2026-05-05 09:28 35.77491 140.39448 150 ft 2 kts 234°
2026-05-05 09:28 35.77505 140.39468 150 ft 4 kts 207°
2026-05-05 09:28 35.77523 140.39475 150 ft 4 kts 165°
2026-05-05 09:28 35.77546 140.39463 150 ft 4 kts 149°
2026-05-05 09:29 35.77555 140.39456 150 ft 4 kts 149°
2026-05-05 09:30 35.77553 140.39458 150 ft 2 kts 149°
2026-05-05 09:30 35.77511 140.39511 150 ft 14 kts 112°
2026-05-05 09:31 35.77453 140.39640 150 ft 21 kts 147°
2026-05-05 09:31 35.77326 140.39730 150 ft 21 kts 150°
2026-05-05 09:31 35.77196 140.39825 150 ft 22 kts 148°
2026-05-05 09:31 35.77056 140.39867 150 ft 21 kts 199°
2026-05-05 09:32 35.76917 140.39794 150 ft 22 kts 198°
2026-05-05 09:32 35.76768 140.39752 150 ft 22 kts 214°
2026-05-05 09:32 35.76640 140.39639 150 ft 23 kts 205°
2026-05-05 09:32 35.76491 140.39557 150 ft 24 kts 204°
2026-05-05 09:33 35.76339 140.39473 150 ft 25 kts 204°
2026-05-05 09:33 35.76179 140.39385 150 ft 25 kts 204°
2026-05-05 09:33 35.76015 140.39296 150 ft 26 kts 204°
2026-05-05 09:33 35.75847 140.39203 150 ft 25 kts 207°
2026-05-05 09:34 35.75754 140.39035 150 ft 24 kts 243°
2026-05-05 09:34 35.75672 140.38852 150 ft 25 kts 239°
2026-05-05 09:34 35.75598 140.38656 150 ft 26 kts 263°
2026-05-05 09:34 35.75676 140.38486 150 ft 25 kts 329°
2026-05-05 09:35 35.75830 140.38375 150 ft 26 kts 329°
2026-05-05 09:35 35.76166 140.38130 150 ft 30 kts 331°
2026-05-05 09:35 35.76350 140.38001 150 ft 31 kts 329°
2026-05-05 09:36 35.76541 140.37864 150 ft 33 kts 330°
2026-05-05 09:36 35.76734 140.37723 150 ft 32 kts 329°
2026-05-05 09:36 35.76864 140.37525 150 ft 30 kts 300°
2026-05-05 09:36 35.77036 140.37377 149 ft 31 kts 330°
2026-05-05 09:37 35.77226 140.37237 149 ft 32 kts 329°
2026-05-05 09:37 35.77418 140.37100 149 ft 28 kts 331°
2026-05-05 09:37 35.77481 140.36961 150 ft 16 kts 249°
2026-05-05 09:37 35.77407 140.36869 149 ft 15 kts 180°
2026-05-05 09:38 35.77362 140.36887 149 ft 0 kts 150°
2026-05-05 09:38 35.77360 140.36889 149 ft 5 kts 150°
2026-05-05 09:38 35.77142 140.37045 148 ft 71 kts 149°
2026-05-05 09:38 35.76531 140.37487 151 ft 131 kts 149°
2026-05-05 09:39 35.75613 140.38156 409 ft 160 kts 149°
2026-05-05 09:39 35.74704 140.38832 1304 ft 151 kts 150°
2026-05-05 09:39 35.73746 140.39528 1712 ft 169 kts 151°
2026-05-05 09:39 35.72660 140.40305 1917 ft 192 kts 151°
2026-05-05 09:40 35.71449 140.41171 2107 ft 217 kts 150°
2026-05-05 09:40 35.70085 140.42151 2443 ft 235 kts 150°
2026-05-05 09:40 35.68654 140.43184 3046 ft 242 kts 150°
2026-05-05 09:40 35.67177 140.44249 3620 ft 250 kts 150°
2026-05-05 09:41 35.65649 140.45348 4168 ft 258 kts 151°
2026-05-05 09:41 35.64080 140.46473 4770 ft 264 kts 150°
2026-05-05 09:41 35.62471 140.47627 5338 ft 270 kts 150°
2026-05-05 09:41 35.60831 140.48804 5939 ft 275 kts 150°
2026-05-05 09:42 35.59158 140.50005 6542 ft 280 kts 150°
2026-05-05 09:42 35.57464 140.51224 7119 ft 284 kts 150°
2026-05-05 09:42 35.55751 140.52460 7722 ft 287 kts 151°
2026-05-05 09:42 35.54016 140.53705 8317 ft 290 kts 151°
2026-05-05 09:43 35.52285 140.54946 8930 ft 292 kts 151°
2026-05-05 09:43 35.50519 140.56210 9557 ft 295 kts 152°
2026-05-05 09:43 35.48739 140.57485 10163 ft 297 kts 152°
2026-05-05 09:43 35.46931 140.58779 10550 ft 307 kts 152°
2026-05-05 09:44 35.45039 140.60131 10773 ft 322 kts 152°
2026-05-05 09:44 35.43129 140.61686 10965 ft 339 kts 141°
2026-05-05 09:44 35.41551 140.63916 11185 ft 353 kts 126°
2026-05-05 09:44 35.40161 140.66437 11577 ft 359 kts 124°
2026-05-05 09:45 35.38766 140.69002 12033 ft 363 kts 124°
2026-05-05 09:45 35.37351 140.71581 12518 ft 366 kts 125°
2026-05-05 09:45 35.35916 140.74178 12988 ft 370 kts 125°
2026-05-05 09:45 35.34464 140.76796 13483 ft 372 kts 125°
2026-05-05 09:46 35.32999 140.79429 13962 ft 375 kts 125°
2026-05-05 09:46 35.31522 140.82081 14386 ft 379 kts 125°
2026-05-05 09:46 35.30030 140.84754 14807 ft 381 kts 125°
2026-05-05 09:46 35.28548 140.87408 15262 ft 384 kts 125°
2026-05-05 09:47 35.27038 140.90110 15705 ft 386 kts 125°
2026-05-05 09:47 35.25517 140.92829 16150 ft 389 kts 125°
2026-05-05 09:47 35.23985 140.95565 16607 ft 391 kts 125°
2026-05-05 09:47 35.22338 140.98226 17022 ft 393 kts 133°
2026-05-05 09:48 35.20267 141.00407 17448 ft 394 kts 149°
2026-05-05 09:48 35.17804 141.01841 17870 ft 393 kts 165°
2026-05-05 09:48 35.15127 141.02460 18318 ft 391 kts 177°
2026-05-05 09:48 35.12403 141.02688 18722 ft 394 kts 179°
2026-05-05 09:49 35.09661 141.02873 19125 ft 395 kts 180°
2026-05-05 09:49 35.06906 141.03068 19531 ft 397 kts 180°
2026-05-05 09:49 35.04148 141.03273 19949 ft 398 kts 180°
2026-05-05 09:49 35.01379 141.03483 20337 ft 399 kts 181°
2026-05-05 09:50 34.98600 141.03697 20725 ft 401 kts 181°
2026-05-05 09:50 34.95811 141.03913 21111 ft 402 kts 182°
2026-05-05 09:50 34.93011 141.04131 21500 ft 404 kts 182°
2026-05-05 09:50 34.90203 141.04350 21867 ft 405 kts 182°
2026-05-05 09:51 34.87415 141.04567 22244 ft 407 kts 183°
2026-05-05 09:51 34.84550 141.04790 22595 ft 408 kts 183°
2026-05-05 09:51 34.81738 141.05009 22941 ft 410 kts 184°
2026-05-05 09:51 34.78883 141.05232 23293 ft 411 kts 184°
2026-05-05 09:52 34.76024 141.05460 23632 ft 413 kts 185°
2026-05-05 09:52 34.73147 141.05683 23939 ft 414 kts 185°
2026-05-05 09:52 34.70266 141.05905 24210 ft 416 kts 185°
2026-05-05 09:52 34.67376 141.06128 24495 ft 416 kts 185°
2026-05-05 09:53 34.64483 141.06353 24781 ft 417 kts 186°
2026-05-05 09:53 34.61590 141.06540 25045 ft 414 kts 189°
2026-05-05 09:53 34.58781 141.06192 25296 ft 399 kts 203°
2026-05-05 09:53 34.56250 141.04999 25572 ft 383 kts 217°
2026-05-05 09:54 34.54145 141.03129 25877 ft 372 kts 229°
2026-05-05 09:54 34.52271 141.00973 26172 ft 370 kts 230°
2026-05-05 09:54 34.50432 140.98788 26465 ft 371 kts 230°
2026-05-05 09:54 34.48588 140.96604 26775 ft 371 kts 230°
2026-05-05 09:55 34.46737 140.94424 27091 ft 371 kts 230°
2026-05-05 09:55 34.44899 140.92268 27407 ft 371 kts 230°
2026-05-05 09:55 34.43040 140.90090 27738 ft 372 kts 230°
2026-05-05 09:55 34.41176 140.87912 28060 ft 372 kts 230°
2026-05-05 09:56 34.39315 140.85739 28388 ft 373 kts 230°
2026-05-05 09:56 34.37448 140.83560 28723 ft 373 kts 230°
2026-05-05 09:56 34.35569 140.81374 29067 ft 374 kts 230°
2026-05-05 09:56 34.33692 140.79194 29385 ft 374 kts 230°
2026-05-05 09:57 34.31811 140.77007 29714 ft 375 kts 230°
2026-05-05 09:57 34.29922 140.74812 30035 ft 376 kts 230°
2026-05-05 09:57 34.28030 140.72616 30335 ft 378 kts 230°
2026-05-05 09:57 34.26132 140.70414 30614 ft 379 kts 230°
2026-05-05 09:58 34.24219 140.68198 30881 ft 381 kts 230°
2026-05-05 09:58 34.22306 140.65983 31152 ft 382 kts 230°
2026-05-05 09:58 34.20407 140.63786 31429 ft 383 kts 230°
2026-05-05 09:58 34.18479 140.61557 31708 ft 384 kts 229°
2026-05-05 09:59 34.16544 140.59322 31996 ft 385 kts 229°
2026-05-05 09:59 34.14604 140.57082 32284 ft 386 kts 229°
2026-05-05 09:59 34.12660 140.54838 32560 ft 387 kts 229°
2026-05-05 09:59 34.10706 140.52585 32818 ft 389 kts 229°
2026-05-05 10:00 34.08743 140.50323 33084 ft 390 kts 229°
2026-05-05 10:00 34.06780 140.48062 33342 ft 391 kts 229°
2026-05-05 10:00 34.04812 140.45798 33651 ft 391 kts 229°
2026-05-05 10:00 34.02840 140.43531 33901 ft 392 kts 228°
2026-05-05 10:01 34.00888 140.41287 34147 ft 393 kts 228°
2026-05-05 10:01 33.98879 140.38980 34378 ft 394 kts 228°
2026-05-05 10:01 33.96893 140.36699 34543 ft 396 kts 228°
2026-05-05 10:01 33.94915 140.34430 34722 ft 398 kts 228°
2026-05-05 10:02 33.92904 140.32125 34930 ft 399 kts 228°
2026-05-05 10:02 33.90899 140.29830 35203 ft 398 kts 229°
2026-05-05 10:02 33.88891 140.27532 35451 ft 398 kts 229°
2026-05-05 10:02 33.86879 140.25232 35710 ft 398 kts 229°
2026-05-05 10:03 33.84804 140.23016 35962 ft 401 kts 225°
2026-05-05 10:03 33.82513 140.21078 36214 ft 407 kts 218°
2026-05-05 10:03 33.80025 140.19427 36473 ft 410 kts 216°
2026-05-05 10:03 33.77475 140.17866 36720 ft 411 kts 215°
2026-05-05 10:04 33.74898 140.16342 36976 ft 412 kts 214°
2026-05-05 10:04 33.72326 140.14838 37229 ft 412 kts 214°
2026-05-05 10:04 33.70620 140.13840 37396 ft 411 kts 214°
2026-05-05 10:04 33.68046 140.12329 37650 ft 411 kts 214°
2026-05-05 10:05 33.64646 140.10321 37986 ft 411 kts 215°
2026-05-05 10:05 33.62082 140.08800 38245 ft 410 kts 215°
2026-05-05 10:05 33.60355 140.07774 38425 ft 410 kts 215°
2026-05-05 10:05 33.57835 140.06275 38662 ft 409 kts 215°
2026-05-05 10:06 33.56971 140.05761 38757 ft 409 kts 215°